Tracking 29892 objects as of 21-Nov-2024
HD Live streaming from Space Station
objects crossing your sky now

COSMOS 1275 DEB

Track COSMOS 1275 DEB now!
10-day predictions


NORAD ID: 39949
Int'l Code: 1981-053NR
Perigee: 904.4 km
Apogee: 950.3 km
Inclination: 82.8 °
Period: 103.4 minutes
Semi major axis: 7298 km
RCS: 0.0066 m2 (small)
Launch date: April 25, 1981
Source: Commonwealth of Independent States (former USSR) (CIS)
Launch site: PLESETSK MISSILE AND SPACE COMPLEX (PKMTR)

Note: This is SATELLITE DEBRIS
Your satellite tracking list
Your tracking list is empty




NASA's NSSDC Master Catalog

Two Line Element Set (TLE):
1 39949U 81053NK  24322.51738777  .00002604  00000-0  20058-2 0  9998
2 39949  82.8263  41.0940 0031467 135.1333 225.2385 13.92415487956318
Source of the keplerian elements: AFSPC